STARLINK-30173 (57439 NORAD) Tracking and Keplerian Element Data

This shows tracking and keplerian element data for the satellite.

Feedback or suggestion? Click here.




ElementValue
Catalog57439
NameSTARLINK-30173
Epoch Orbit2735
Epoch Day12.84852937
Epoch Year2024
RAAN204.0232
Inclination43.001
Eccentricity0.0001325
Argument of Perigee266.31
Mean Anonmoly93.7591
Mean Motion15.02535489
Decay Rate3.55E-06
L11 57439U 23105K 24012.84852937 .00000355 00000+0 41318-4 0 9997
L22 57439 43.0010 204.0232 0001325 266.3100 93.7591 15.02535489 27353



Live tracking and technical data element details for STARLINK-30173 (NORAD 57439). STARLINK-30173 can be tracked NOW for your location showing map with azimuth and elevation plus other details from your city location.







IsCatalogInMostPopularTable: catalog: 57439, numindb: 8
Update: records affected: 1



GetName: 57439 STARLINK-30173

Hit Count: updated at: Wed, 28 Feb 2024 23:56:04 GMT